Location: Pedholt
(56.0260°N, 10.2097°E)
Time: 06:07:14
(UTC+00:00)

Okean 3 - Pass Details

Date: 14 July 2020
Orbit: 576 x 601 km, 82.5° (Epoch: 14 August)

Event Time Altitude Azimuth Distance (km) Brightness Sun altitude
Rises 01:47:54 0° 342° (NNW) 2,808 7.6 -6.7°
Reaches altitude 10° 01:50:12 10° 335° (NNW) 1,906 6.5 -6.5°
Maximum altitude 01:54:05 37° 268° (W) 916 4.2 -6.2°
Drops below altitude 10° 01:57:56 10° 201° (SSW) 1,900 5.4 -5.9°
Enters shadow 01:58:48 - 197° (SSW) 2,233 5.8 -5.8°
